Wind_Speed
27 27 26 25 23 21 19 18 16 15 12 11 10 8 6 5 4 3 2 3 3 4 4 5 6 7 7 8 9 9 10 10 11 11 12 12 13 14 15 16 17 19 19 20
27 25 25 25 24 24 22 20 16 14 12 11 9 7 6 5 4 3 2 3 3 3 4 5 6 7 8 8 9 9 9 9 10 10 11 12 13 14 15 16 17 19 19 19
25 25 25 25 24 22 20 18 16 14 12 9 7 6 6 6 4 3 2 2 2 3 4 4 5 7 8 8 8 8 8 9 10 10 11 12 13 14 15 16 17 19 19 20
24 25 25 24 24 23 21 19 15 12 11 8 6 6 5 3 3 2 1 1 1 2 3 4 5 5 6 7 7 8 8 9 10 10 12 12 13 14 15 16 17 18 19 20
25 25 25 24 24 24 21 19 15 13 11 9 6 4 4 3 3 2 1 1 1 2 3 3 4 5 6 6 7 8 8 9 10 10 11 13 14 15 16 16 17 18 18 19
24 24 25 24 23 22 20 19 17 15 14 11 9 6 5 4 4 3 2 1 1 2 2 3 4 5 6 6 7 7 8 9 10 11 12 13 14 15 16 17 17 18 18 19
22 22 22 22 21 20 21 20 18 18 15 13 10 10 9 7 6 5 4 2 2 2 2 3 4 4 5 6 6 6 7 9 10 11 12 13 14 15 16 17 18 19 19 19
20 21 21 21 20 21 20 20 18 16 14 12 10 12 9 7 7 6 4 3 2 2 3 3 3 4 4 5 5 6 7 8 10 11 12 13 14 15 16 17 18 19 20 20
18 19 19 20 22 24 22 19 17 13 13 11 11 11 8 8 8 6 5 4 3 3 2 3 3 4 4 5 5 6 7 8 10 11 13 14 15 16 17 18 19 20 20 20
17 16 16 18 19 21 21 19 14 12 13 11 10 10 8 8 8 6 5 4 4 3 2 2 3 3 4 5 5 6 7 9 10 12 13 15 16 17 18 19 20 21 21 21
14 13 14 15 17 19 19 17 15 12 11 10 10 11 9 7 7 6 5 4 4 3 2 2 3 3 4 5 6 7 8 9 11 12 14 15 16 17 18 19 21 21 21 21
16 13 11 12 14 17 18 16 15 13 13 14 13 13 11 8 7 6 5 4 3 2 2 1 2 3 4 5 6 7 8 10 11 13 14 15 17 18 19 20 21 22 22 22
17 15 13 11 11 14 16 17 18 17 16 15 13 12 11 10 9 7 6 5 4 3 2 2 3 4 5 6 7 8 9 10 12 13 14 16 17 19 20 21 22 23 24 24
15 14 13 10 9 12 14 15 16 16 15 14 15 13 12 11 9 8 7 5 4 4 4 4 4 5 6 7 8 9 10 12 13 14 15 17 18 20 21 22 23 24 25 25
15 12 11 10 11 12 13 14 15 15 15 14 13 12 11 10 10 8 7 6 6 5 5 5 6 6 7 8 9 10 12 13 14 15 16 18 19 21 22 23 24 25 26 26
16 13 12 12 12 12 12 13 14 15 15 15 13 11 10 9 9 8 8 7 7 7 7 7 7 8 9 10 11 12 13 14 15 16 18 19 21 22 23 24 25 26 27 28
16 15 14 12 12 13 12 12 13 14 14 14 13 12 11 9 9 9 9 9 9 9 9 9 9 10 11 12 12 13 15 16 17 18 19 21 22 23 25 26 27 28 28 29
15 15 15 14 13 13 12 13 13 13 13 13 13 12 11 10 10 10 10 10 10 10 11 11 12 12 13 14 15 16 17 18 19 20 21 22 24 25 27 28 29 30 30 31
16 16 15 15 14 12 12 12 13 13 13 13 13 13 12 12 12 11 12 13 13 13 13 14 15 15 16 17 18 19 20 21 22 23 24 25 26 27 28 29 30 31 32 33
16 16 16 16 15 14 14 12 13 14 13 13 14 14 14 14 14 13 14 15 15 15 16 16 17 18 18 19 20 21 22 23 24 25 26 27 28 30 31 32 33 34 35 36
17 18 17 17 17 17 15 13 14 15 13 14 15 15 16 16 15 15 16 17 17 18 19 19 20 21 21 22 23 24 25 26 26 27 28 29 31 32 34 35 36 38 39 39
19 19 19 19 20 19 16 16 17 17 16 17 17 18 18 18 18 18 19 20 21 21 22 22 23 23 24 25 26 27 28 29 29 30 32 33 34 36 37 38 40 41 42 42
21 21 22 22 22 19 19 19 20 20 20 19 19 20 21 21 21 22 22 23 24 24 24 25 26 26 27 28 29 30 31 32 33 34 35 36 38 39 41 42 43 44 45 45
25 23 24 24 23 23 22 22 22 23 23 22 22 23 24 24 24 25 26 26 27 27 28 28 29 29 30 31 32 33 34 35 36 37 38 40 41 43 44 46 47 47 48 48
27 26 26 27 27 26 26 26 26 26 26 26 26 26 27 27 28 28 29 29 30 30 31 32 32 33 34 34 35 36 37 38 39 41 42 43 45 46 47 49 50 50 51 52
29 29 30 30 30 30 30 30 29 29 30 30 30 30 31 31 31 32 32 33 33 34 34 35 35 36 37 38 38 39 40 41 43 44 45 47 48 50 51 52 52 53 53 54
Wind_Direction
189 190 191 190 188 187 190 195 200 205 200 205 210 211 217 226 227 237 275 312 322 329 339 341 344 347 347 346 345 345 345 343 342 346 348 349 349 348 349 349 349 350 350 351
183 184 184 184 184 187 187 188 188 193 191 200 205 197 202 206 210 216 264 304 320 325 340 340 348 347 346 344 344 347 346 346 344 346 348 349 349 349 349 349 349 350 350 352
178 180 181 179 181 184 185 182 183 183 180 192 201 200 202 209 205 209 234 290 311 329 338 351 351 348 352 352 350 350 349 350 348 347 348 349 349 348 348 349 349 350 350 351
171 174 177 179 179 183 183 179 179 172 171 176 195 192 195 209 216 212 229 298 344 345 346 349 348 351 355 356 354 355 356 354 352 349 348 348 348 347 348 349 349 349 350 352
171 172 174 177 179 183 179 174 170 163 158 160 176 193 201 234 243 235 272 307 341 345 347 351 352 353 354 351 351 354 356 355 354 352 350 350 349 348 349 349 349 350 350 351
171 174 177 179 180 179 172 169 166 165 165 176 182 213 225 243 259 269 275 281 320 342 346 350 354 355 353 352 352 354 356 357 356 355 353 352 351 351 350 351 351 351 350 350
167 174 176 176 176 172 168 166 167 173 178 180 188 221 236 238 253 263 265 265 287 314 331 337 343 350 352 353 353 355 358 358 358 356 355 353 353 352 352 351 351 351 350 349
169 172 175 176 173 170 169 168 174 180 181 177 205 231 239 242 249 252 257 260 272 292 313 325 333 343 348 354 357 357 356 355 355 355 354 354 353 353 353 352 351 350 350 349
168 173 174 177 174 172 173 177 175 173 169 182 218 236 240 239 244 252 263 266 263 270 292 319 336 345 351 355 356 354 353 352 351 352 352 353 352 352 352 351 351 350 349 348
162 172 174 177 178 181 181 177 174 169 164 183 230 254 247 237 245 251 255 258 257 261 280 319 339 346 349 351 352 351 350 349 347 347 347 349 351 350 350 350 350 350 349 348
155 167 176 181 183 182 182 181 178 170 167 187 219 241 247 246 245 245 247 251 257 267 283 317 342 348 348 347 348 347 346 345 345 345 345 347 348 348 348 348 348 348 348 347
157 157 167 179 183 183 185 184 183 183 184 195 217 233 250 254 249 247 246 248 254 269 285 314 337 342 344 346 345 343 342 340 341 341 342 343 345 345 345 345 345 345 345 345
164 159 162 180 190 194 193 190 187 190 195 199 221 233 241 247 243 241 241 243 248 259 268 291 315 325 332 336 336 337 337 337 337 338 339 339 340 341 341 341 342 342 342 341
165 162 167 185 202 203 199 199 199 200 198 205 223 231 232 233 232 233 235 238 244 252 264 281 299 310 318 323 326 328 330 332 333 334 335 335 336 337 337 337 338 337 337 336
177 177 180 198 208 212 208 205 204 205 201 205 224 230 224 225 228 232 235 240 246 254 265 278 290 300 307 313 317 321 324 327 329 331 332 333 333 334 335 335 335 334 333 332
191 191 197 214 216 217 216 211 210 210 211 217 223 226 225 221 229 234 238 245 250 256 266 277 285 293 301 308 313 318 322 325 326 328 329 329 331 332 332 332 332 331 331 329
202 206 209 217 222 219 220 217 215 215 216 220 227 230 234 233 236 239 243 249 255 261 270 278 285 291 298 304 309 314 318 320 321 321 322 324 325 326 327 328 327 327 326 326
210 212 214 214 221 224 218 218 220 221 222 226 230 235 240 241 243 247 252 256 261 267 274 280 285 291 296 301 306 311 314 316 317 317 318 319 321 322 323 323 323 322 322 321
221 220 219 219 222 226 222 220 224 227 228 232 237 241 245 247 250 254 260 264 268 273 278 283 287 291 296 299 303 307 310 312 314 315 316 317 318 318 319 319 319 319 319 319
227 227 226 224 227 231 227 222 228 233 234 238 243 246 250 253 257 261 265 269 273 277 281 284 287 290 293 297 300 303 306 309 311 312 314 315 316 317 317 317 318 318 318 316
231 232 232 232 234 236 232 232 237 241 241 244 249 252 256 260 264 267 270 273 276 279 283 286 288 290 292 295 299 302 304 306 308 310 311 312 313 314 315 316 316 317 316 315
233 235 236 238 239 242 241 243 246 249 250 252 255 258 262 266 269 271 275 277 279 282 284 286 288 290 292 295 298 300 303 305 306 308 309 310 311 312 313 314 314 315 314 313
239 238 239 241 244 247 249 250 253 254 255 258 261 263 267 269 272 275 278 279 280 282 284 286 287 289 291 294 296 299 301 303 304 306 307 308 309 310 312 312 313 313 312 311
242 242 245 248 249 250 252 254 255 257 260 262 265 268 270 272 275 278 279 280 281 283 284 286 287 289 291 293 295 297 299 300 302 304 305 307 308 309 310 311 311 311 310 309
245 245 247 250 252 252 253 256 258 261 263 266 268 271 273 275 276 278 279 280 281 283 284 285 287 289 291 292 294 296 298 299 301 303 304 306 307 308 309 310 310 309 308 308
246 247 248 250 252 254 255 258 261 263 265 267 270 272 274 276 277 278 279 280 282 283 284 286 287 289 291 292 294 296 298 299 300 302 304 305 307 307 308 308 308 308 307 306
Height
5801 5809 5814 5820 5826 5831 5836 5840 5844 5847 5851 5853 5855 5857 5859 5860 5862 5863 5863 5864 5864 5864 5864 5864 5864 5863 5863 5862 5861 5861 5860 5860 5859 5858 5857 5856 5854 5853 5851 5849 5846 5844 5840 5837
5802 5808 5814 5819 5825 5830 5834 5838 5842 5846 5850 5853 5854 5857 5858 5860 5861 5862 5863 5863 5863 5864 5863 5863 5863 5862 5862 5861 5861 5860 5859 5859 5858 5857 5856 5855 5853 5852 5850 5848 5846 5843 5840 5837
5803 5809 5814 5819 5825 5829 5833 5837 5841 5846 5849 5852 5855 5857 5858 5860 5861 5862 5862 5863 5863 5863 5863 5862 5862 5861 5861 5860 5860 5859 5859 5858 5857 5856 5855 5854 5852 5851 5849 5847 5845 5842 5839 5836
5802 5808 5814 5820 5825 5829 5833 5838 5842 5846 5850 5852 5855 5856 5857 5859 5860 5861 5861 5862 5862 5862 5862 5862 5862 5861 5861 5860 5859 5859 5858 5857 5857 5856 5854 5853 5852 5850 5848 5846 5844 5841 5838 5835
5803 5809 5814 5819 5824 5828 5833 5838 5843 5847 5850 5853 5855 5856 5858 5858 5859 5860 5861 5861 5861 5861 5861 5861 5861 5861 5860 5860 5859 5858 5857 5857 5856 5855 5854 5852 5851 5849 5847 5845 5843 5840 5838 5835
5805 5810 5815 5819 5824 5829 5834 5840 5844 5847 5850 5853 5855 5856 5857 5858 5859 5860 5860 5860 5861 5861 5861 5860 5860 5860 5860 5859 5858 5858 5857 5856 5855 5854 5853 5852 5850 5848 5846 5844 5842 5839 5837 5834
5807 5812 5816 5821 5826 5830 5835 5840 5844 5847 5849 5852 5855 5856 5857 5857 5858 5859 5859 5860 5860 5860 5860 5860 5860 5859 5859 5858 5858 5857 5856 5856 5855 5854 5853 5851 5849 5847 5845 5843 5841 5839 5836 5833
5809 5814 5818 5822 5827 5832 5835 5840 5844 5847 5849 5852 5855 5854 5856 5857 5858 5858 5858 5859 5859 5859 5859 5859 5859 5858 5858 5857 5857 5856 5856 5855 5854 5853 5852 5850 5848 5846 5844 5842 5840 5838 5835 5832
5812 5816 5820 5823 5827 5831 5834 5838 5842 5845 5847 5852 5853 5854 5855 5856 5857 5857 5857 5857 5858 5858 5858 5858 5857 5857 5857 5857 5856 5856 5855 5854 5853 5852 5851 5849 5847 5846 5844 5841 5839 5837 5834 5831
5813 5817 5821 5824 5828 5831 5833 5836 5840 5844 5847 5850 5852 5852 5854 5855 5855 5856 5856 5856 5857 5857 5857 5857 5856 5856 5856 5856 5855 5855 5854 5854 5853 5851 5850 5848 5846 5844 5842 5840 5838 5835 5832 5830
5814 5819 5822 5825 5828 5831 5835 5838 5840 5843 5847 5851 5851 5853 5852 5853 5854 5854 5855 5855 5856 5856 5856 5856 5855 5855 5855 5855 5854 5854 5853 5852 5851 5850 5849 5847 5845 5843 5841 5839 5836 5834 5831 5828
5816 5820 5823 5826 5828 5830 5833 5836 5840 5843 5846 5848 5849 5852 5850 5851 5852 5853 5854 5854 5854 5855 5855 5854 5854 5854 5854 5854 5853 5853 5852 5851 5850 5848 5847 5845 5843 5841 5839 5837 5834 5832 5829 5826
5817 5820 5823 5827 5831 5832 5833 5836 5838 5840 5843 5846 5847 5850 5849 5850 5851 5852 5853 5853 5853 5853 5853 5853 5853 5853 5853 5852 5852 5851 5850 5849 5848 5846 5845 5843 5841 5839 5837 5834 5832 5829 5826 5824
5817 5820 5824 5827 5828 5830 5832 5835 5837 5840 5842 5845 5845 5846 5847 5848 5849 5850 5851 5851 5852 5852 5852 5852 5852 5851 5851 5851 5850 5849 5848 5847 5846 5844 5842 5841 5838 5836 5834 5831 5828 5826 5823 5820
5818 5820 5822 5825 5827 5829 5831 5833 5835 5838 5840 5842 5842 5843 5845 5846 5848 5848 5849 5850 5850 5850 5850 5850 5850 5850 5849 5849 5848 5847 5846 5844 5843 5841 5840 5838 5835 5833 5830 5828 5825 5822 5819 5816
5818 5820 5822 5824 5826 5828 5830 5832 5834 5836 5838 5840 5840 5842 5843 5845 5846 5846 5847 5848 5848 5848 5848 5848 5848 5847 5847 5846 5845 5844 5843 5842 5840 5838 5837 5834 5832 5829 5827 5824 5821 5818 5815 5812
5816 5819 5821 5823 5824 5826 5829 5831 5832 5834 5836 5838 5839 5841 5841 5843 5844 5845 5845 5846 5846 5846 5846 5846 5845 5845 5844 5843 5842 5841 5840 5838 5837 5835 5833 5830 5828 5825 5823 5820 5816 5813 5810 5807
5814 5816 5819 5821 5823 5825 5829 5828 5830 5832 5834 5836 5837 5838 5839 5841 5842 5842 5843 5843 5843 5843 5843 5843 5842 5842 5841 5840 5839 5837 5836 5834 5832 5830 5828 5826 5823 5821 5818 5814 5811 5808 5804 5801
5812 5814 5816 5819 5820 5822 5825 5826 5828 5830 5832 5833 5835 5836 5837 5838 5839 5840 5840 5840 5840 5840 5840 5839 5839 5838 5837 5836 5834 5833 5831 5830 5827 5825 5823 5820 5818 5815 5812 5808 5805 5801 5797 5793
5809 5811 5814 5816 5818 5820 5823 5824 5825 5828 5829 5831 5831 5833 5834 5834 5836 5837 5836 5836 5836 5836 5836 5835 5834 5833 5832 5831 5830 5828 5826 5824 5822 5819 5817 5814 5811 5808 5805 5801 5797 5793 5789 5784
5806 5808 5811 5813 5814 5816 5819 5821 5822 5825 5827 5827 5828 5829 5830 5830 5832 5833 5832 5832 5832 5831 5831 5830 5829 5828 5827 5825 5824 5822 5820 5818 5815 5813 5810 5807 5804 5800 5796 5792 5788 5784 5779 5774
5802 5804 5807 5808 5810 5814 5815 5817 5819 5821 5822 5823 5823 5824 5825 5826 5826 5827 5827 5826 5826 5826 5825 5824 5823 5822 5821 5819 5817 5815 5813 5811 5808 5805 5802 5799 5795 5791 5787 5783 5778 5773 5768 5763
5797 5800 5802 5804 5807 5809 5810 5812 5813 5815 5816 5817 5818 5819 5820 5820 5820 5820 5820 5820 5820 5819 5818 5817 5816 5815 5813 5812 5810 5807 5805 5802 5800 5797 5793 5790 5786 5782 5777 5772 5767 5762 5756 5750
5792 5794 5797 5798 5800 5803 5804 5806 5808 5809 5810 5812 5812 5813 5813 5814 5814 5814 5813 5813 5812 5812 5811 5810 5808 5807 5805 5803 5801 5799 5796 5793 5790 5787 5784 5780 5776 5771 5766 5761 5755 5749 5743 5737
5786 5788 5790 5792 5794 5796 5798 5799 5801 5802 5804 5805 5805 5806 5806 5806 5806 5806 5805 5805 5804 5804 5802 5801 5800 5798 5796 5794 5792 5789 5786 5783 5780 5776 5773 5768 5764 5759 5754 5748 5742 5736 5730 5723
5779 5781 5783 5785 5786 5788 5791 5792 5794 5795 5796 5797 5797 5798 5798 5798 5798 5797 5797 5796 5795 5794 5793 5791 5790 5788 5786 5784 5781 5778 5775 5772 5768 5764 5760 5756 5751 5745 5740 5734 5729 5722 5715 5709